DO7AX-13 Weather Reports


time (UTC)temp
F
wind
direction
speed
knots
gust
knots
rain 1hr
in
rain 24hr
in
rain mn
in
humidity
%
barometer
mb
20260507093801 58 14 5.2 9.6 0.00 0.00 0.00 60 1013.3
20260507093301 58 51 5.2 9.6 0.00 0.00 0.00 61 1013.3
20260507092800 57 24 5.2 9.6 0.00 0.00 0.00 58 1013.2
20260507092301 58 7 3.5 9.6 0.00 0.00 0.00 60 1013.3
20260507091800 58 27 5.2 9.6 0.00 0.00 0.00 55 1013.2
20260507091301 58 45 5.2 9.6 0.00 0.00 0.00 59 1013.2
20260507090801 58 17 6.1 9.6 0.00 0.00 0.00 58 1013.2
20260507085301 57 343 4.3 7.8 0.00 0.00 0.00 60 1013.1
20260507084300 56 54 1.7 9.6 0.00 0.00 0.00 60 1013.2
20260507083802 56 37 2.6 9.6 0.00 0.00 0.00 66 1013.1
20260507083301 55 4 4.3 10.4 0.00 0.00 0.00 62 1013.1
20260507082801 55 47 4.3 10.4 0.00 0.00 0.00 62 1013.1
20260507081803 55 69 5.2 9.6 0.00 0.00 0.00 65 1013.0
20260507081301 55 20 4.3 8.7 0.00 0.00 0.00 63 1013.0
20260507080800 54 69 4.3 7.8 0.00 0.00 0.00 66 1012.9
20260507080300 54 44 4.3 9.6 0.00 0.00 0.00 68 1012.9
20260507075801 53 76 5.2 10.4 0.00 0.00 0.00 67 1012.9
20260507074802 52 133 5.2 9.6 0.00 0.00 0.00 69 1012.9
20260507074301 52 37 3.5 10.4 0.00 0.00 0.00 69 1012.9
20260507073301 52 97 5.2 9.6 0.00 0.00 0.00 71 1012.7
20260507072801 51 7 3.5 9.6 0.00 0.00 0.00 72 1012.6
20260507072323 51 8 2.6 9.6 0.00 0.00 0.00 70 1012.8
20260507071800 52 51 3.5 9.6 0.00 0.00 0.00 71 1012.7
20260507071302 51 75 4.3 9.6 0.00 0.00 0.00 72 1012.8
20260507070802 51 99 5.2 9.6 0.00 0.00 0.00 73 1012.6
20260507070301 51 100 3.5 8.7 0.00 0.00 0.00 72 1012.7
20260507065801 50 42 3.5 8.7 0.00 0.00 0.00 74 1012.6
20260507064801 50 45 5.2 9.6 0.00 0.00 0.00 74 1012.6
20260507064301 50 61 2.6 8.7 0.00 0.00 0.00 74 1012.5
20260507063800 49 38 4.3 8.7 0.00 0.00 0.00 76 1012.4
20260507063301 49 31 3.5 11.3 0.00 0.00 0.00 76 1012.4
20260507062800 49 28 7.0 11.3 0.00 0.00 0.00 75 1012.3
20260507062316 48 55 4.3 7.8 0.00 0.00 0.00 79 1012.1
20260507061804 47 82 3.5 8.7 0.00 0.00 0.00 79 1012.0
20260507061302 47 66 5.2 8.7 0.00 0.00 0.00 79 1012.1
20260507060802 47 89 3.5 7.8 0.00 0.00 0.00 79 1012.1
20260507060302 47 79 1.7 8.7 0.00 0.00 0.00 79 1012.0
20260507055800 47 35 5.2 8.7 0.00 0.00 0.00 79 1011.9
20260507054801 47 69 3.5 9.6 0.00 0.00 0.00 80 1011.9
20260507054301 46 34 4.3 8.7 0.00 0.00 0.00 80 1011.8
20260507053300 46 10 4.3 11.3 0.00 0.00 0.00 80 1011.7
20260507052801 46 41 5.2 9.6 0.00 0.00 0.00 80 1011.7
20260507052301 46 18 3.5 8.7 0.00 0.00 0.00 81 1011.6
20260507051801 46 71 3.5 8.7 0.00 0.00 0.00 81 1011.5
20260507051301 46 117 2.6 9.6 0.00 0.00 0.00 81 1011.6
20260507050800 46 61 5.2 11.3 0.00 0.00 0.00 81 1011.5
20260507045801 46 79 2.6 10.4 0.00 0.00 0.00 82 1011.5
20260507045301 46 37 3.5 10.4 0.00 0.00 0.00 81 1011.4
20260507044800 46 3 4.3 9.6 0.00 0.00 0.00 82 1011.3
20260507044301 45 51 3.5 7.8 0.00 0.00 0.00 82 1011.2
20260507043801 45 69 3.5 10.4 0.00 0.00 0.00 82 1011.1
20260507042802 45 73 4.3 7.8 0.00 0.00 0.00 83 1011.1
20260507042301 45 89 3.5 8.7 0.00 0.00 0.00 83 1011.0
20260507040302 45 27 1.7 7.8 0.00 0.00 0.00 83 1010.9
20260507035801 45 78 3.5 8.7 0.00 0.00 0.00 83 1010.8
20260507034804 45 63 4.3 7.8 0.00 0.00 0.00 84 1010.8
20260507034303 45 51 3.5 6.1 0.00 0.00 0.00 84 1010.8
20260507033801 45 51 3.5 6.1 0.00 0.00 0.00 83 1010.8
20260507033301 45 59 4.3 7.8 0.00 0.00 0.00 83 1010.8
20260507032800 45 30 3.5 7.8 0.00 0.00 0.00 83 1010.8
20260507031301 45 69 2.6 7.8 0.00 0.00 0.00 84 1010.7
20260507030800 45 85 3.5 10.4 0.00 0.00 0.00 84 1010.6
20260507030301 45 66 4.3 10.4 0.00 0.00 0.00 84 1010.6
20260507024802 45 55 3.5 9.6 0.00 0.00 0.00 84 1010.5
20260507024301 45 10 4.3 8.7 0.00 0.00 0.00 83 1010.5
20260507023800 45 96 3.5 8.7 0.00 0.00 0.00 84 1010.4
20260507023317 45 54 2.6 10.4 0.00 0.00 0.00 83 1010.2
20260507022842 45 116 2.6 10.4 0.00 0.00 0.00 83 1010.1
20260507022710 45 116 2.6 9.6 0.00 0.00 0.00 83 1010.2
20260507022152 45 68 5.2 11.3 0.00 0.00 0.00 83 1010.2
20260507022038 45 65 3.5 11.3 0.00 0.00 0.00 83 1010.1
20260507021921 45 85 4.3 8.7 0.00 0.00 0.00 83 1010.1
20260507021723 45 73 4.3 9.6 0.00 0.00 0.00 83 1010.1
20260507021550 45 0 2.6 10.4 0.00 0.00 0.00 83 1010.1
20260507021410 45 100 5.2 10.4 0.00 0.00 0.00 83 1010.1
20260507021254 46 11 3.5 8.7 0.00 0.00 0.00 83 1010.0
20260507011302 46 61 3.5 11.3 0.00 0.00 0.00 83 1009.9
20260507010800 46 96 4.3 8.7 0.00 0.00 0.00 83 1009.7
20260507010300 46 18 3.5 9.6 0.00 0.00 0.00 83 1009.7
20260507005800 46 41 4.3 9.6 0.00 0.00 0.00 82 1009.8
20260507005305 46 45 3.5 8.7 0.00 0.00 0.00 82 1009.7
20260507004802 46 66 4.3 7.8 0.00 0.00 0.00 82 1009.7
20260507004303 46 41 2.6 7.8 0.00 0.00 0.00 82 1009.7
20260507003803 46 90 3.5 7.8 0.00 0.00 0.00 81 1009.8
20260507002801 47 71 3.5 8.7 0.00 0.00 0.00 81 1009.9
20260507002306 47 82 3.5 8.7 0.00 0.00 0.00 81 1009.7
20260507001802 47 69 5.2 11.3 0.00 0.00 0.00 81 1009.8
20260507001303 47 45 4.3 11.3 0.00 0.00 0.00 81 1009.7
20260507000303 47 52 2.6 8.7 0.00 0.00 0.00 81 1009.8
20260506235802 47 96 4.3 10.4 0.00 0.00 0.00 81 1009.7
20260506235306 47 97 5.2 10.4 0.00 0.00 0.00 81 1009.6
20260506233302 47 109 3.5 6.1 0.00 0.00 0.00 81 1009.7
20260506232804 47 102 1.7 6.1 0.00 0.00 0.00 81 1009.7
20260506232306 47 127 1.7 8.7 0.00 0.00 0.00 81 1009.6
20260506231300 47 89 5.2 9.6 0.00 0.00 0.00 81 1009.5
20260506230801 47 16 4.3 8.7 0.00 0.00 0.00 81 1009.6
20260506230314 47 80 4.3 7.8 0.00 0.00 0.00 81 1009.5
20260506225802 47 69 3.5 10.4 0.00 0.00 0.00 81 1009.4
20260506225301 47 80 3.5 10.4 0.00 0.00 0.00 81 1009.5
20260506224803 47 75 5.2 9.6 0.00 0.00 0.00 81 1009.5
20260506224300 47 116 4.3 8.7 0.00 0.00 0.00 81 1009.4
20260506222759 47 71 1.7 10.4 0.00 0.00 0.00 81 1009.3
20260506222300 47 116 3.5 10.4 0.00 0.00 0.00 81 1009.2
20260506221759 47 110 2.6 8.7 0.00 0.00 0.00 81 1009.2
20260506221300 47 59 4.3 9.6 0.00 0.00 0.00 81 1009.1
20260506220801 47 73 5.2 9.6 0.00 0.00 0.00 81 1009.1
20260506220300 47 159 0.9 6.1 0.00 0.00 0.00 81 1009.0
20260506215759 47 79 3.5 10.4 0.00 0.00 0.00 81 1009.1
20260506215259 47 82 3.5 10.4 0.00 0.00 0.00 81 1009.0
20260506214804 47 14 2.6 8.7 0.00 0.00 0.00 81 1009.1
20260506213801 47 96 2.6 10.4 0.00 0.00 0.00 81 1009.0
20260506213303 47 51 5.2 11.3 0.00 0.00 0.00 81 1008.9
20260506212259 47 47 5.2 13.0 0.00 0.00 0.00 81 1008.9
20260506211758 48 75 6.1 13.0 0.00 0.00 0.00 81 1008.9
20260506210757 48 44 6.1 10.4 0.00 0.00 0.00 81 1008.9
20260506210258 48 75 4.3 11.3 0.00 0.00 0.00 81 1008.9
20260506205819 48 47 5.2 13.0 0.00 0.00 0.00 80 1008.9
20260506205255 48 62 6.1 13.0 0.00 0.00 0.00 80 1008.9
20260506204255 48 82 3.5 9.6 0.00 0.00 0.00 82 1008.7
20260506203754 48 113 4.3 7.8 0.00 0.00 0.00 82 1008.6
20260506202812 48 106 1.7 5.2 0.00 0.00 0.00 81 1008.6
20260506202320 48 100 0.9 5.2 0.00 0.00 0.00 81 1008.6
20260506201257 49 120 1.7 5.2 0.00 0.00 0.00 81 1008.6
20260506200756 49 116 2.6 5.2 0.00 0.00 0.00 81 1008.5
20260506200254 49 120 1.7 7.8 0.00 0.00 0.00 81 1008.5
20260506195753 49 42 1.7 12.2 0.00 0.00 0.00 81 1008.4
20260506195254 49 75 6.1 12.2 0.00 0.00 0.00 80 1008.4
20260506194757 49 75 3.5 15.6 0.00 0.00 0.00 80 1008.3
20260506194255 49 99 5.2 15.6 0.00 0.00 0.00 80 1008.3
20260506193756 49 65 7.0 14.8 0.00 0.00 0.00 80 1008.3
20260506192755 49 51 6.1 13.0 0.00 0.00 0.00 81 1008.1
20260506192255 49 111 7.0 13.0 0.00 0.00 0.00 81 1008.1
20260506191756 49 42 3.5 12.2 0.00 0.00 0.00 81 1008.0
20260506191309 49 32 4.3 11.3 0.00 0.00 0.00 81 1007.9
20260506190806 50 82 4.3 13.0 0.00 0.00 0.00 81 1007.9
20260506190254 50 58 5.2 13.0 0.00 0.00 0.00 80 1007.9
20260506185754 50 158 3.5 10.4 0.00 0.00 0.00 80 1007.9
20260506185255 50 78 3.5 13.0 0.00 0.00 0.00 79 1007.8
20260506184753 51 90 7.0 13.0 0.00 0.00 0.00 79 1007.8
20260506184255 51 79 3.5 11.3 0.00 0.00 0.00 79 1007.8
20260506183753 51 92 5.2 11.3 0.00 0.00 0.00 79 1007.7
20260506183252 51 87 5.2 9.6 0.00 0.00 0.00 79 1007.6
20260506182753 52 85 3.5 11.3 0.00 0.00 0.00 78 1007.6
20260506182253 52 99 5.2 11.3 0.00 0.00 0.00 77 1007.4
20260506181754 52 82 5.2 9.6 0.00 0.00 0.00 77 1007.3
20260506181254 52 44 4.3 9.6 0.00 0.00 0.00 77 1007.2
20260506180253 52 62 3.5 10.4 0.00 0.00 0.00 75 1007.1
20260506175752 52 75 4.3 10.4 0.00 0.00 0.00 75 1007.0
20260506175254 52 71 5.2 10.4 0.00 0.00 0.00 77 1007.0
20260506174752 52 34 4.3 10.4 0.00 0.00 0.00 77 1007.0
20260506174252 52 35 3.5 8.7 0.00 0.00 0.00 77 1007.0
20260506173750 52 0 3.5 7.8 0.00 0.00 0.00 78 1007.0
20260506173252 52 25 3.5 11.3 0.00 0.00 0.00 78 1006.9
20260506172751 52 16 5.2 11.3 0.00 0.00 0.00 78 1006.9
20260506172251 52 20 5.2 11.3 0.00 0.00 0.00 78 1006.9
20260506171251 53 11 5.2 10.4 0.00 0.00 0.00 77 1006.8
20260506170750 53 37 5.2 12.2 0.00 0.00 0.00 78 1006.6
20260506170251 53 0 5.2 12.2 0.00 0.00 0.00 77 1006.6
20260506165751 53 25 6.1 12.2 0.00 0.00 0.00 78 1006.6
20260506165249 53 69 7.8 12.2 0.00 0.00 0.00 78 1006.6
20260506164252 53 44 7.0 13.0 0.00 0.00 0.00 78 1006.5
20260506163250 54 32 6.1 10.4 0.00 0.00 0.00 78 1006.6
20260506162750 54 28 5.2 10.4 0.00 0.00 0.00 77 1006.6
20260506161750 54 18 3.5 11.3 0.00 0.00 0.00 77 1006.6
20260506161246 54 17 5.2 10.4 0.00 0.00 0.00 77 1006.6
20260506160746 54 7 6.1 11.3 0.00 0.00 0.00 76 1006.5
20260506160248 54 8 5.2 13.0 0.00 0.00 0.00 77 1006.6
20260506155248 54 35 7.0 11.3 0.00 0.00 0.00 77 1006.4
20260506154748 54 11 4.3 10.4 0.00 0.00 0.00 77 1006.5
20260506153747 54 45 5.2 10.4 0.00 0.00 0.00 77 1006.4
20260506153248 54 30 2.6 9.6 0.00 0.00 0.00 77 1006.5
20260506152748 54 348 4.3 11.3 0.00 0.00 0.00 77 1006.4
20260506151747 54 18 6.1 10.4 0.00 0.00 0.00 76 1006.6
20260506151247 55 20 7.0 13.9 0.00 0.00 0.00 76 1006.5
20260506150248 55 0 5.2 9.6 0.00 0.00 0.00 76 1006.5
20260506145745 55 42 5.2 9.6 0.00 0.00 0.00 76 1006.6
20260506145245 55 34 4.3 9.6 0.00 0.00 0.00 76 1006.6
20260506144744 55 0 5.2 9.6 0.00 0.00 0.00 76 1006.5
20260506144258 56 14 6.1 9.6 0.00 0.00 0.00 75 1006.6
20260506143246 55 42 3.5 7.8 0.00 0.00 0.00 76 1006.5
20260506142745 55 32 3.5 8.7 0.00 0.00 0.00 74 1006.5
20260506142246 55 80 4.3 8.7 0.00 0.00 0.00 74 1006.6
20260506141747 55 41 5.2 11.3 0.00 0.00 0.00 75 1006.5
20260506141243 55 21 3.5 11.3 0.00 0.00 0.00 74 1006.5
20260506140245 55 20 5.2 9.6 0.00 0.00 0.00 73 1006.5
20260506135746 56 63 6.1 9.6 0.00 0.00 0.00 73 1006.6
20260506135245 56 13 3.5 9.6 0.00 0.00 0.00 73 1006.5
20260506134745 56 49 7.0 10.4 0.00 0.00 0.00 72 1006.5
20260506134248 56 45 5.2 10.4 0.00 0.00 0.00 73 1006.5
20260506133745 56 37 3.5 7.8 0.00 0.00 0.00 73 1006.5
20260506133244 56 23 3.5 8.7 0.00 0.00 0.00 72 1006.6
20260506132745 56 63 6.1 8.7 0.00 0.00 0.00 71 1006.5
20260506132247 56 16 4.3 10.4 0.00 0.00 0.00 73 1006.5
20260506131743 56 3 4.3 10.4 0.00 0.00 0.00 73 1006.4
20260506130244 57 18 3.5 10.4 0.00 0.00 0.00 74 1006.4
20260506125743 56 0 5.2 10.4 0.00 0.00 0.00 74 1006.3
20260506125243 56 348 5.2 8.7 0.00 0.00 0.00 75 1006.3
20260506124745 56 0 4.3 9.6 0.00 0.00 0.00 74 1006.4
20260506124244 56 0 5.2 10.4 0.00 0.00 0.00 75 1006.4
20260506123743 56 10 5.2 10.4 0.00 0.00 0.00 75 1006.4
20260506123242 56 338 5.2 10.4 0.00 0.00 0.00 74 1006.3
20260506122742 56 37 3.5 8.7 0.00 0.00 0.00 74 1006.3
20260506122256 56 0 4.3 8.7 0.00 0.00 0.00 72 1006.3
20260506121245 57 21 4.3 7.8 0.00 0.00 0.00 72 1006.2
20260506120744 57 23 4.3 7.8 0.00 0.00 0.00 71 1006.2
20260506120254 57 0 4.3 9.6 0.00 0.00 0.00 72 1006.2
20260506115743 57 340 5.2 9.6 0.00 0.00 0.00 71 1006.0
20260506115241 56 23 3.5 9.6 0.00 0.00 0.00 70 1006.0
20260506114741 56 0 2.6 8.7 0.00 0.00 0.00 71 1006.0
20260506113742 56 21 4.3 8.7 0.00 0.00 0.00 70 1006.1
20260506112807 56 42 4.3 9.6 0.00 0.00 0.00 69 1006.0
20260506112241 56 32 4.3 9.6 0.00 0.00 0.00 67 1006.1
20260506111740 56 31 5.2 8.7 0.00 0.00 0.00 66 1006.1
20260506111241 56 32 5.2 8.7 0.00 0.00 0.00 66 1006.1
20260506110740 56 24 5.2 11.3 0.00 0.00 0.00 66 1006.2
20260506105740 56 20 5.2 9.6 0.00 0.00 0.00 66 1006.1
20260506105240 56 25 5.2 9.6 0.00 0.00 0.00 66 1006.1
20260506104740 56 25 4.3 9.6 0.00 0.00 0.00 67 1006.1
20260506103238 55 48 5.2 10.4 0.00 0.00 0.00 65 1006.1
20260506102737 56 30 5.2 9.6 0.00 0.00 0.00 65 1006.1
20260506102248 56 3 4.3 9.6 0.00 0.00 0.00 67 1006.1
20260506101737 55 24 4.3 10.4 0.00 0.00 0.00 66 1006.1
20260506101237 55 0 4.3 10.4 0.00 0.00 0.00 67 1006.1
20260506100737 55 25 5.2 10.4 0.00 0.00 0.00 67 1006.1
20260506095737 55 23 7.0 11.3 0.00 0.00 0.00 67 1006.1
20260506095244 55 0 4.3 8.7 0.00 0.00 0.00 67 1006.1
20260506094736 55 14 4.3 9.6 0.00 0.00 0.00 66 1006.1